Index of /20260502/WXO-DD/model_rdps/10km/06/027
Name Last modified Size Description
Parent Directory -
20260502T06Z_MSC_RDPS_AbsoluteVorticity_IsbL-0250_RLatLon0.09_PT027H.grib2 2026-05-02 08:48 612K
20260502T06Z_MSC_RDPS_AbsoluteVorticity_IsbL-0500_RLatLon0.09_PT027H.grib2 2026-05-02 08:48 564K
20260502T06Z_MSC_RDPS_AbsoluteVorticity_IsbL-0700_RLatLon0.09_PT027H.grib2 2026-05-02 08:48 624K
20260502T06Z_MSC_RDPS_AbsoluteVorticity_IsbL-0850_RLatLon0.09_PT027H.grib2 2026-05-02 08:48 791K
20260502T06Z_MSC_RDPS_AirTemp_AGL-120m_RLatLon0.09_PT027H.grib2 2026-05-02 08:48 379K
20260502T06Z_MSC_RDPS_AirTemp_AGL-2m_RLatLon0.09_PT027H.grib2 2026-05-02 08:48 639K
20260502T06Z_MSC_RDPS_AirTemp_AGL-40m_RLatLon0.09_PT027H.grib2 2026-05-02 08:48 396K
20260502T06Z_MSC_RDPS_AirTemp_AGL-80m_RLatLon0.09_PT027H.grib2 2026-05-02 08:48 387K
20260502T06Z_MSC_RDPS_AirTemp_IsbL-0001_RLatLon0.09_PT027H.grib2 2026-05-02 08:48 297K
20260502T06Z_MSC_RDPS_AirTemp_IsbL-0005_RLatLon0.09_PT027H.grib2 2026-05-02 08:48 285K
20260502T06Z_MSC_RDPS_AirTemp_IsbL-0010_RLatLon0.09_PT027H.grib2 2026-05-02 08:48 295K
20260502T06Z_MSC_RDPS_AirTemp_IsbL-0020_RLatLon0.09_PT027H.grib2 2026-05-02 08:48 410K
20260502T06Z_MSC_RDPS_AirTemp_IsbL-0030_RLatLon0.09_PT027H.grib2 2026-05-02 08:48 338K
20260502T06Z_MSC_RDPS_AirTemp_IsbL-0050_RLatLon0.09_PT027H.grib2 2026-05-02 08:48 316K
20260502T06Z_MSC_RDPS_AirTemp_IsbL-0100_RLatLon0.09_PT027H.grib2 2026-05-02 08:48 424K
20260502T06Z_MSC_RDPS_AirTemp_IsbL-0150_RLatLon0.09_PT027H.grib2 2026-05-02 08:48 418K
20260502T06Z_MSC_RDPS_AirTemp_IsbL-0175_RLatLon0.09_PT027H.grib2 2026-05-02 08:48 406K
20260502T06Z_MSC_RDPS_AirTemp_IsbL-0200_RLatLon0.09_PT027H.grib2 2026-05-02 08:48 410K
20260502T06Z_MSC_RDPS_AirTemp_IsbL-0225_RLatLon0.09_PT027H.grib2 2026-05-02 08:48 414K
20260502T06Z_MSC_RDPS_AirTemp_IsbL-0250_RLatLon0.09_PT027H.grib2 2026-05-02 08:48 424K
20260502T06Z_MSC_RDPS_AirTemp_IsbL-0275_RLatLon0.09_PT027H.grib2 2026-05-02 08:48 406K
20260502T06Z_MSC_RDPS_AirTemp_IsbL-0300_RLatLon0.09_PT027H.grib2 2026-05-02 08:48 413K
20260502T06Z_MSC_RDPS_AirTemp_IsbL-0350_RLatLon0.09_PT027H.grib2 2026-05-02 08:48 426K
20260502T06Z_MSC_RDPS_AirTemp_IsbL-0400_RLatLon0.09_PT027H.grib2 2026-05-02 08:48 427K
20260502T06Z_MSC_RDPS_AirTemp_IsbL-0450_RLatLon0.09_PT027H.grib2 2026-05-02 08:48 399K
20260502T06Z_MSC_RDPS_AirTemp_IsbL-0500_RLatLon0.09_PT027H.grib2 2026-05-02 08:48 410K
20260502T06Z_MSC_RDPS_AirTemp_IsbL-0550_RLatLon0.09_PT027H.grib2 2026-05-02 08:48 428K
20260502T06Z_MSC_RDPS_AirTemp_IsbL-0600_RLatLon0.09_PT027H.grib2 2026-05-02 08:48 444K
20260502T06Z_MSC_RDPS_AirTemp_IsbL-0650_RLatLon0.09_PT027H.grib2 2026-05-02 08:48 457K
20260502T06Z_MSC_RDPS_AirTemp_IsbL-0700_RLatLon0.09_PT027H.grib2 2026-05-02 08:48 482K
20260502T06Z_MSC_RDPS_AirTemp_IsbL-0750_RLatLon0.09_PT027H.grib2 2026-05-02 08:48 520K
20260502T06Z_MSC_RDPS_AirTemp_IsbL-0800_RLatLon0.09_PT027H.grib2 2026-05-02 08:48 572K
20260502T06Z_MSC_RDPS_AirTemp_IsbL-0850_RLatLon0.09_PT027H.grib2 2026-05-02 08:48 631K
20260502T06Z_MSC_RDPS_AirTemp_IsbL-0875_RLatLon0.09_PT027H.grib2 2026-05-02 08:48 527K
20260502T06Z_MSC_RDPS_AirTemp_IsbL-0900_RLatLon0.09_PT027H.grib2 2026-05-02 08:48 535K
20260502T06Z_MSC_RDPS_AirTemp_IsbL-0925_RLatLon0.09_PT027H.grib2 2026-05-02 08:48 527K
20260502T06Z_MSC_RDPS_AirTemp_IsbL-0950_RLatLon0.09_PT027H.grib2 2026-05-02 08:48 527K
20260502T06Z_MSC_RDPS_AirTemp_IsbL-0970_RLatLon0.09_PT027H.grib2 2026-05-02 08:48 520K
20260502T06Z_MSC_RDPS_AirTemp_IsbL-0985_RLatLon0.09_PT027H.grib2 2026-05-02 08:48 509K
20260502T06Z_MSC_RDPS_AirTemp_IsbL-1000_RLatLon0.09_PT027H.grib2 2026-05-02 08:48 493K
20260502T06Z_MSC_RDPS_AirTemp_IsbL-1015_RLatLon0.09_PT027H.grib2 2026-05-02 08:48 493K
20260502T06Z_MSC_RDPS_Albedo_Sfc_RLatLon0.09_PT027H.grib2 2026-05-02 08:48 160K
20260502T06Z_MSC_RDPS_CAPE_Sfc_RLatLon0.09_PT027H.grib2 2026-05-02 08:48 1.6M
20260502T06Z_MSC_RDPS_CIN_Sfc_RLatLon0.09_PT027H.grib2 2026-05-02 08:48 1.1M
20260502T06Z_MSC_RDPS_CloudWater_EAtm_RLatLon0.09_PT027H.grib2 2026-05-02 08:48 220K
20260502T06Z_MSC_RDPS_ConvectivePrecip-Accum_Sfc_RLatLon0.09_PT027H.grib2 2026-05-02 08:48 901K
20260502T06Z_MSC_RDPS_DewPointDepression_AGL-2m_RLatLon0.09_PT027H.grib2 2026-05-02 08:48 399K
20260502T06Z_MSC_RDPS_DewPointDepression_IsbL-0001_RLatLon0.09_PT027H.grib2 2026-05-02 08:48 193
20260502T06Z_MSC_RDPS_DewPointDepression_IsbL-0005_RLatLon0.09_PT027H.grib2 2026-05-02 08:48 193
20260502T06Z_MSC_RDPS_DewPointDepression_IsbL-0010_RLatLon0.09_PT027H.grib2 2026-05-02 08:48 193
20260502T06Z_MSC_RDPS_DewPointDepression_IsbL-0020_RLatLon0.09_PT027H.grib2 2026-05-02 08:48 193
20260502T06Z_MSC_RDPS_DewPointDepression_IsbL-0030_RLatLon0.09_PT027H.grib2 2026-05-02 08:48 193
20260502T06Z_MSC_RDPS_DewPointDepression_IsbL-0050_RLatLon0.09_PT027H.grib2 2026-05-02 08:48 105K
20260502T06Z_MSC_RDPS_DewPointDepression_IsbL-0100_RLatLon0.09_PT027H.grib2 2026-05-02 08:48 121K
20260502T06Z_MSC_RDPS_DewPointDepression_IsbL-0150_RLatLon0.09_PT027H.grib2 2026-05-02 08:48 152K
20260502T06Z_MSC_RDPS_DewPointDepression_IsbL-0175_RLatLon0.09_PT027H.grib2 2026-05-02 08:48 185K
20260502T06Z_MSC_RDPS_DewPointDepression_IsbL-0200_RLatLon0.09_PT027H.grib2 2026-05-02 08:48 219K
20260502T06Z_MSC_RDPS_DewPointDepression_IsbL-0225_RLatLon0.09_PT027H.grib2 2026-05-02 08:48 257K
20260502T06Z_MSC_RDPS_DewPointDepression_IsbL-0250_RLatLon0.09_PT027H.grib2 2026-05-02 08:48 295K
20260502T06Z_MSC_RDPS_DewPointDepression_IsbL-0275_RLatLon0.09_PT027H.grib2 2026-05-02 08:48 307K
20260502T06Z_MSC_RDPS_DewPointDepression_IsbL-0300_RLatLon0.09_PT027H.grib2 2026-05-02 08:48 326K
20260502T06Z_MSC_RDPS_DewPointDepression_IsbL-0350_RLatLon0.09_PT027H.grib2 2026-05-02 08:48 333K
20260502T06Z_MSC_RDPS_DewPointDepression_IsbL-0400_RLatLon0.09_PT027H.grib2 2026-05-02 08:48 340K
20260502T06Z_MSC_RDPS_DewPointDepression_IsbL-0450_RLatLon0.09_PT027H.grib2 2026-05-02 08:48 344K
20260502T06Z_MSC_RDPS_DewPointDepression_IsbL-0500_RLatLon0.09_PT027H.grib2 2026-05-02 08:48 350K
20260502T06Z_MSC_RDPS_DewPointDepression_IsbL-0550_RLatLon0.09_PT027H.grib2 2026-05-02 08:48 359K
20260502T06Z_MSC_RDPS_DewPointDepression_IsbL-0600_RLatLon0.09_PT027H.grib2 2026-05-02 08:48 368K
20260502T06Z_MSC_RDPS_DewPointDepression_IsbL-0650_RLatLon0.09_PT027H.grib2 2026-05-02 08:48 375K
20260502T06Z_MSC_RDPS_DewPointDepression_IsbL-0700_RLatLon0.09_PT027H.grib2 2026-05-02 08:48 386K
20260502T06Z_MSC_RDPS_DewPointDepression_IsbL-0750_RLatLon0.09_PT027H.grib2 2026-05-02 08:48 403K
20260502T06Z_MSC_RDPS_DewPointDepression_IsbL-0800_RLatLon0.09_PT027H.grib2 2026-05-02 08:48 438K
20260502T06Z_MSC_RDPS_DewPointDepression_IsbL-0850_RLatLon0.09_PT027H.grib2 2026-05-02 08:48 473K
20260502T06Z_MSC_RDPS_DewPointDepression_IsbL-0875_RLatLon0.09_PT027H.grib2 2026-05-02 08:48 476K
20260502T06Z_MSC_RDPS_DewPointDepression_IsbL-0900_RLatLon0.09_PT027H.grib2 2026-05-02 08:48 464K
20260502T06Z_MSC_RDPS_DewPointDepression_IsbL-0925_RLatLon0.09_PT027H.grib2 2026-05-02 08:48 446K
20260502T06Z_MSC_RDPS_DewPointDepression_IsbL-0950_RLatLon0.09_PT027H.grib2 2026-05-02 08:48 442K
20260502T06Z_MSC_RDPS_DewPointDepression_IsbL-0970_RLatLon0.09_PT027H.grib2 2026-05-02 08:48 435K
20260502T06Z_MSC_RDPS_DewPointDepression_IsbL-0985_RLatLon0.09_PT027H.grib2 2026-05-02 08:48 430K
20260502T06Z_MSC_RDPS_DewPointDepression_IsbL-1000_RLatLon0.09_PT027H.grib2 2026-05-02 08:48 428K
20260502T06Z_MSC_RDPS_DewPointDepression_IsbL-1015_RLatLon0.09_PT027H.grib2 2026-05-02 08:48 419K
20260502T06Z_MSC_RDPS_DewPoint_AGL-2m_RLatLon0.09_PT027H.grib2 2026-05-02 08:48 395K
20260502T06Z_MSC_RDPS_DownwardLongwaveRadiationFlux-Accum_Sfc_RLatLon0.09_PT027H.grib2 2026-05-02 08:48 451K
20260502T06Z_MSC_RDPS_DownwardShortwaveRadiationFlux-Accum_NTAtm_RLatLon0.09_PT027H.grib2 2026-05-02 08:48 126K
20260502T06Z_MSC_RDPS_DownwardShortwaveRadiationFlux-Accum_Sfc_RLatLon0.09_PT027H.grib2 2026-05-02 08:48 641K
20260502T06Z_MSC_RDPS_FreezingRain-Accum1h_Sfc_RLatLon0.09_PT027H.grib2 2026-05-02 08:48 40K
20260502T06Z_MSC_RDPS_FreezingRain-Accum3h_Sfc_RLatLon0.09_PT027H.grib2 2026-05-02 08:48 48K
20260502T06Z_MSC_RDPS_FreezingRain-Accum_Sfc_RLatLon0.09_PT027H.grib2 2026-05-02 08:48 118K
20260502T06Z_MSC_RDPS_GeopotentialHeight_IsbL-0001_RLatLon0.09_PT027H.grib2 2026-05-02 08:48 310K
20260502T06Z_MSC_RDPS_GeopotentialHeight_IsbL-0005_RLatLon0.09_PT027H.grib2 2026-05-02 08:48 302K
20260502T06Z_MSC_RDPS_GeopotentialHeight_IsbL-0010_RLatLon0.09_PT027H.grib2 2026-05-02 08:48 304K
20260502T06Z_MSC_RDPS_GeopotentialHeight_IsbL-0020_RLatLon0.09_PT027H.grib2 2026-05-02 08:48 401K
20260502T06Z_MSC_RDPS_GeopotentialHeight_IsbL-0030_RLatLon0.09_PT027H.grib2 2026-05-02 08:48 404K
20260502T06Z_MSC_RDPS_GeopotentialHeight_IsbL-0050_RLatLon0.09_PT027H.grib2 2026-05-02 08:48 310K
20260502T06Z_MSC_RDPS_GeopotentialHeight_IsbL-0100_RLatLon0.09_PT027H.grib2 2026-05-02 08:48 286K
20260502T06Z_MSC_RDPS_GeopotentialHeight_IsbL-0150_RLatLon0.09_PT027H.grib2 2026-05-02 08:48 230K
20260502T06Z_MSC_RDPS_GeopotentialHeight_IsbL-0175_RLatLon0.09_PT027H.grib2 2026-05-02 08:48 233K
20260502T06Z_MSC_RDPS_GeopotentialHeight_IsbL-0200_RLatLon0.09_PT027H.grib2 2026-05-02 08:48 264K
20260502T06Z_MSC_RDPS_GeopotentialHeight_IsbL-0225_RLatLon0.09_PT027H.grib2 2026-05-02 08:48 265K
20260502T06Z_MSC_RDPS_GeopotentialHeight_IsbL-0250_RLatLon0.09_PT027H.grib2 2026-05-02 08:48 266K
20260502T06Z_MSC_RDPS_GeopotentialHeight_IsbL-0275_RLatLon0.09_PT027H.grib2 2026-05-02 08:48 265K
20260502T06Z_MSC_RDPS_GeopotentialHeight_IsbL-0300_RLatLon0.09_PT027H.grib2 2026-05-02 08:48 234K
20260502T06Z_MSC_RDPS_GeopotentialHeight_IsbL-0350_RLatLon0.09_PT027H.grib2 2026-05-02 08:48 230K
20260502T06Z_MSC_RDPS_GeopotentialHeight_IsbL-0400_RLatLon0.09_PT027H.grib2 2026-05-02 08:48 227K
20260502T06Z_MSC_RDPS_GeopotentialHeight_IsbL-0450_RLatLon0.09_PT027H.grib2 2026-05-02 08:48 297K
20260502T06Z_MSC_RDPS_GeopotentialHeight_IsbL-0500_RLatLon0.09_PT027H.grib2 2026-05-02 08:48 292K
20260502T06Z_MSC_RDPS_GeopotentialHeight_IsbL-0550_RLatLon0.09_PT027H.grib2 2026-05-02 08:48 288K
20260502T06Z_MSC_RDPS_GeopotentialHeight_IsbL-0600_RLatLon0.09_PT027H.grib2 2026-05-02 08:48 284K
20260502T06Z_MSC_RDPS_GeopotentialHeight_IsbL-0650_RLatLon0.09_PT027H.grib2 2026-05-02 08:48 255K
20260502T06Z_MSC_RDPS_GeopotentialHeight_IsbL-0700_RLatLon0.09_PT027H.grib2 2026-05-02 08:48 254K
20260502T06Z_MSC_RDPS_GeopotentialHeight_IsbL-0750_RLatLon0.09_PT027H.grib2 2026-05-02 08:48 257K
20260502T06Z_MSC_RDPS_GeopotentialHeight_IsbL-0800_RLatLon0.09_PT027H.grib2 2026-05-02 08:48 349K
20260502T06Z_MSC_RDPS_GeopotentialHeight_IsbL-0850_RLatLon0.09_PT027H.grib2 2026-05-02 08:48 359K
20260502T06Z_MSC_RDPS_GeopotentialHeight_IsbL-0875_RLatLon0.09_PT027H.grib2 2026-05-02 08:48 359K
20260502T06Z_MSC_RDPS_GeopotentialHeight_IsbL-0900_RLatLon0.09_PT027H.grib2 2026-05-02 08:48 364K
20260502T06Z_MSC_RDPS_GeopotentialHeight_IsbL-0925_RLatLon0.09_PT027H.grib2 2026-05-02 08:48 367K
20260502T06Z_MSC_RDPS_GeopotentialHeight_IsbL-0950_RLatLon0.09_PT027H.grib2 2026-05-02 08:48 370K
20260502T06Z_MSC_RDPS_GeopotentialHeight_IsbL-0970_RLatLon0.09_PT027H.grib2 2026-05-02 08:48 374K
20260502T06Z_MSC_RDPS_GeopotentialHeight_IsbL-0985_RLatLon0.09_PT027H.grib2 2026-05-02 08:48 382K
20260502T06Z_MSC_RDPS_GeopotentialHeight_IsbL-1000_RLatLon0.09_PT027H.grib2 2026-05-02 08:48 394K
20260502T06Z_MSC_RDPS_GeopotentialHeight_IsbL-1015_RLatLon0.09_PT027H.grib2 2026-05-02 08:48 410K
20260502T06Z_MSC_RDPS_Humidex_Sfc_RLatLon0.09_PT027H.grib2 2026-05-02 08:48 2.4M
20260502T06Z_MSC_RDPS_IcePellets-Accum1h_Sfc_RLatLon0.09_PT027H.grib2 2026-05-02 08:48 3.7K
20260502T06Z_MSC_RDPS_IcePellets-Accum3h_Sfc_RLatLon0.09_PT027H.grib2 2026-05-02 08:48 4.1K
20260502T06Z_MSC_RDPS_IcePellets-Accum_Sfc_RLatLon0.09_PT027H.grib2 2026-05-02 08:48 16K
20260502T06Z_MSC_RDPS_KIndex_Sfc_RLatLon0.09_PT027H.grib2 2026-05-02 08:48 2.4M
20260502T06Z_MSC_RDPS_LatentHeatNetFlux_Sfc_RLatLon0.09_PT027H.grib2 2026-05-02 08:48 410K
20260502T06Z_MSC_RDPS_LiftedIndex-MU-VT_IsbL-0500_RLatLon0.09_PT027H.grib2 2026-05-02 08:48 2.4M
20260502T06Z_MSC_RDPS_NetLongwaveRadiationFlux-Accum_Sfc_RLatLon0.09_PT027H.grib2 2026-05-02 08:48 606K
20260502T06Z_MSC_RDPS_NetShortwaveRadiationFlux-Accum_Sfc_RLatLon0.09_PT027H.grib2 2026-05-02 08:48 639K
20260502T06Z_MSC_RDPS_PlanetaryBoundaryLayerHeight_Sfc_RLatLon0.09_PT027H.grib2 2026-05-02 08:48 1.1M
20260502T06Z_MSC_RDPS_Precip-Accum1h_Sfc_RLatLon0.09_PT027H.grib2 2026-05-02 08:48 1.3M
20260502T06Z_MSC_RDPS_Precip-Accum3h_Sfc_RLatLon0.09_PT027H.grib2 2026-05-02 08:48 1.3M
20260502T06Z_MSC_RDPS_Precip-Accum_Sfc_RLatLon0.09_PT027H.grib2 2026-05-02 08:48 1.9M
20260502T06Z_MSC_RDPS_PrecipRate_Sfc_RLatLon0.09_PT027H.grib2 2026-05-02 08:48 183K
20260502T06Z_MSC_RDPS_PrecipType-Instant_Sfc_RLatLon0.09_PT027H.grib2 2026-05-02 08:48 598K
20260502T06Z_MSC_RDPS_Pressure-Trend3h_Sfc_RLatLon0.09_PT027H.grib2 2026-05-02 08:48 1.2M
20260502T06Z_MSC_RDPS_Pressure_MSL_RLatLon0.09_PT027H.grib2 2026-05-02 08:48 325K
20260502T06Z_MSC_RDPS_Pressure_PVU-1.5_RLatLon0.09_PT027H.grib2 2026-05-02 08:48 2.5M
20260502T06Z_MSC_RDPS_Pressure_PVU-1_RLatLon0.09_PT027H.grib2 2026-05-02 08:48 2.4M
20260502T06Z_MSC_RDPS_Pressure_PVU-2_RLatLon0.09_PT027H.grib2 2026-05-02 08:48 2.4M
20260502T06Z_MSC_RDPS_Pressure_Sfc_RLatLon0.09_PT027H.grib2 2026-05-02 08:48 500K
20260502T06Z_MSC_RDPS_RadiativeTemp_Sfc_RLatLon0.09_PT027H.grib2 2026-05-02 08:48 306K
20260502T06Z_MSC_RDPS_Rain-Accum1h_Sfc_RLatLon0.09_PT027H.grib2 2026-05-02 08:48 626K
20260502T06Z_MSC_RDPS_Rain-Accum3h_Sfc_RLatLon0.09_PT027H.grib2 2026-05-02 08:48 626K
20260502T06Z_MSC_RDPS_Rain-Accum_Sfc_RLatLon0.09_PT027H.grib2 2026-05-02 08:48 1.5M
20260502T06Z_MSC_RDPS_RelativeHumidity_AGL-2m_RLatLon0.09_PT027H.grib2 2026-05-02 08:48 1.0M
20260502T06Z_MSC_RDPS_RelativeHumidity_IsbL-0010_RLatLon0.09_PT027H.grib2 2026-05-02 08:48 635K
20260502T06Z_MSC_RDPS_RelativeHumidity_IsbL-0020_RLatLon0.09_PT027H.grib2 2026-05-02 08:48 672K
20260502T06Z_MSC_RDPS_RelativeHumidity_IsbL-0030_RLatLon0.09_PT027H.grib2 2026-05-02 08:48 604K
20260502T06Z_MSC_RDPS_RelativeHumidity_IsbL-0050_RLatLon0.09_PT027H.grib2 2026-05-02 08:48 360K
20260502T06Z_MSC_RDPS_RelativeHumidity_IsbL-0100_RLatLon0.09_PT027H.grib2 2026-05-02 08:48 279K
20260502T06Z_MSC_RDPS_RelativeHumidity_IsbL-0150_RLatLon0.09_PT027H.grib2 2026-05-02 08:48 417K
20260502T06Z_MSC_RDPS_RelativeHumidity_IsbL-0175_RLatLon0.09_PT027H.grib2 2026-05-02 08:48 477K
20260502T06Z_MSC_RDPS_RelativeHumidity_IsbL-0200_RLatLon0.09_PT027H.grib2 2026-05-02 08:48 550K
20260502T06Z_MSC_RDPS_RelativeHumidity_IsbL-0225_RLatLon0.09_PT027H.grib2 2026-05-02 08:48 614K
20260502T06Z_MSC_RDPS_RelativeHumidity_IsbL-0250_RLatLon0.09_PT027H.grib2 2026-05-02 08:48 682K
20260502T06Z_MSC_RDPS_RelativeHumidity_IsbL-0275_RLatLon0.09_PT027H.grib2 2026-05-02 08:48 707K
20260502T06Z_MSC_RDPS_RelativeHumidity_IsbL-0300_RLatLon0.09_PT027H.grib2 2026-05-02 08:48 748K
20260502T06Z_MSC_RDPS_RelativeHumidity_IsbL-0350_RLatLon0.09_PT027H.grib2 2026-05-02 08:48 776K
20260502T06Z_MSC_RDPS_RelativeHumidity_IsbL-0400_RLatLon0.09_PT027H.grib2 2026-05-02 08:48 787K
20260502T06Z_MSC_RDPS_RelativeHumidity_IsbL-0450_RLatLon0.09_PT027H.grib2 2026-05-02 08:48 789K
20260502T06Z_MSC_RDPS_RelativeHumidity_IsbL-0500_RLatLon0.09_PT027H.grib2 2026-05-02 08:48 797K
20260502T06Z_MSC_RDPS_RelativeHumidity_IsbL-0550_RLatLon0.09_PT027H.grib2 2026-05-02 08:48 814K
20260502T06Z_MSC_RDPS_RelativeHumidity_IsbL-0600_RLatLon0.09_PT027H.grib2 2026-05-02 08:48 832K
20260502T06Z_MSC_RDPS_RelativeHumidity_IsbL-0650_RLatLon0.09_PT027H.grib2 2026-05-02 08:48 847K
20260502T06Z_MSC_RDPS_RelativeHumidity_IsbL-0700_RLatLon0.09_PT027H.grib2 2026-05-02 08:48 871K
20260502T06Z_MSC_RDPS_RelativeHumidity_IsbL-0750_RLatLon0.09_PT027H.grib2 2026-05-02 08:48 918K
20260502T06Z_MSC_RDPS_RelativeHumidity_IsbL-0800_RLatLon0.09_PT027H.grib2 2026-05-02 08:48 1.0M
20260502T06Z_MSC_RDPS_RelativeHumidity_IsbL-0850_RLatLon0.09_PT027H.grib2 2026-05-02 08:48 1.0M
20260502T06Z_MSC_RDPS_RelativeHumidity_IsbL-0875_RLatLon0.09_PT027H.grib2 2026-05-02 08:48 1.1M
20260502T06Z_MSC_RDPS_RelativeHumidity_IsbL-0900_RLatLon0.09_PT027H.grib2 2026-05-02 08:48 1.1M
20260502T06Z_MSC_RDPS_RelativeHumidity_IsbL-0925_RLatLon0.09_PT027H.grib2 2026-05-02 08:48 1.1M
20260502T06Z_MSC_RDPS_RelativeHumidity_IsbL-0950_RLatLon0.09_PT027H.grib2 2026-05-02 08:48 1.1M
20260502T06Z_MSC_RDPS_RelativeHumidity_IsbL-0970_RLatLon0.09_PT027H.grib2 2026-05-02 08:48 1.0M
20260502T06Z_MSC_RDPS_RelativeHumidity_IsbL-0985_RLatLon0.09_PT027H.grib2 2026-05-02 08:48 1.0M
20260502T06Z_MSC_RDPS_RelativeHumidity_IsbL-1000_RLatLon0.09_PT027H.grib2 2026-05-02 08:48 1.0M
20260502T06Z_MSC_RDPS_RelativeHumidity_IsbL-1015_RLatLon0.09_PT027H.grib2 2026-05-02 08:48 1.0M
20260502T06Z_MSC_RDPS_Runoff-Accum_Sfc_RLatLon0.09_PT027H.grib2 2026-05-02 08:48 57K
20260502T06Z_MSC_RDPS_SWEATIndex_Sfc_RLatLon0.09_PT027H.grib2 2026-05-02 08:48 2.4M
20260502T06Z_MSC_RDPS_SeeingIndex_EAtm_RLatLon0.09_PT027H.grib2 2026-05-02 08:48 1.0M
20260502T06Z_MSC_RDPS_SensibleHeatNetFlux_Sfc_RLatLon0.09_PT027H.grib2 2026-05-02 08:48 295K
20260502T06Z_MSC_RDPS_ShowalterIndex_IsbL-0500_RLatLon0.09_PT027H.grib2 2026-05-02 08:48 2.6M
20260502T06Z_MSC_RDPS_SkyTransparencyIndex_EAtm_RLatLon0.09_PT027H.grib2 2026-05-02 08:48 707K
20260502T06Z_MSC_RDPS_Snow-Accum1h_Sfc_RLatLon0.09_PT027H.grib2 2026-05-02 08:48 447K
20260502T06Z_MSC_RDPS_Snow-Accum3h_Sfc_RLatLon0.09_PT027H.grib2 2026-05-02 08:48 451K
20260502T06Z_MSC_RDPS_Snow-Accum_Sfc_RLatLon0.09_PT027H.grib2 2026-05-02 08:48 693K
20260502T06Z_MSC_RDPS_SnowDensity_Sfc_RLatLon0.09_PT027H.grib2 2026-05-02 08:48 171K
20260502T06Z_MSC_RDPS_SnowDepth_Sfc_RLatLon0.09_PT027H.grib2 2026-05-02 08:48 656K
20260502T06Z_MSC_RDPS_SoilTemp_DBS-0to10cm_RLatLon0.09_PT027H.grib2 2026-05-02 08:48 226K
20260502T06Z_MSC_RDPS_SoilTemp_Sfc_RLatLon0.09_PT027H.grib2 2026-05-02 08:48 267K
20260502T06Z_MSC_RDPS_SoilVolumetricIceContent_Sfc_RLatLon0.09_PT027H.grib2 2026-05-02 08:48 158K
20260502T06Z_MSC_RDPS_SoilVolumetricWaterContent_DBS-0to10cm_RLatLon0.09_PT027H.grib2 2026-05-02 08:48 273K
20260502T06Z_MSC_RDPS_SoilVolumetricWaterContent_DBS-0to1cm_RLatLon0.09_PT027H.grib2 2026-05-02 08:48 340K
20260502T06Z_MSC_RDPS_SpecificHumidity_AGL-120m_RLatLon0.09_PT027H.grib2 2026-05-02 08:48 491K
20260502T06Z_MSC_RDPS_SpecificHumidity_AGL-2m_RLatLon0.09_PT027H.grib2 2026-05-02 08:48 657K
20260502T06Z_MSC_RDPS_SpecificHumidity_AGL-40m_RLatLon0.09_PT027H.grib2 2026-05-02 08:48 497K
20260502T06Z_MSC_RDPS_SpecificHumidity_AGL-80m_RLatLon0.09_PT027H.grib2 2026-05-02 08:48 493K
20260502T06Z_MSC_RDPS_SpecificHumidity_IsbL-0001_RLatLon0.09_PT027H.grib2 2026-05-02 08:48 352K
20260502T06Z_MSC_RDPS_SpecificHumidity_IsbL-0005_RLatLon0.09_PT027H.grib2 2026-05-02 08:48 366K
20260502T06Z_MSC_RDPS_SpecificHumidity_IsbL-0010_RLatLon0.09_PT027H.grib2 2026-05-02 08:48 399K
20260502T06Z_MSC_RDPS_SpecificHumidity_IsbL-0020_RLatLon0.09_PT027H.grib2 2026-05-02 08:48 380K
20260502T06Z_MSC_RDPS_SpecificHumidity_IsbL-0030_RLatLon0.09_PT027H.grib2 2026-05-02 08:48 373K
20260502T06Z_MSC_RDPS_SpecificHumidity_IsbL-0050_RLatLon0.09_PT027H.grib2 2026-05-02 08:48 485K
20260502T06Z_MSC_RDPS_SpecificHumidity_IsbL-0100_RLatLon0.09_PT027H.grib2 2026-05-02 08:48 424K
20260502T06Z_MSC_RDPS_SpecificHumidity_IsbL-0150_RLatLon0.09_PT027H.grib2 2026-05-02 08:48 458K
20260502T06Z_MSC_RDPS_SpecificHumidity_IsbL-0175_RLatLon0.09_PT027H.grib2 2026-05-02 08:48 438K
20260502T06Z_MSC_RDPS_SpecificHumidity_IsbL-0200_RLatLon0.09_PT027H.grib2 2026-05-02 08:48 452K
20260502T06Z_MSC_RDPS_SpecificHumidity_IsbL-0225_RLatLon0.09_PT027H.grib2 2026-05-02 08:48 452K
20260502T06Z_MSC_RDPS_SpecificHumidity_IsbL-0250_RLatLon0.09_PT027H.grib2 2026-05-02 08:48 557K
20260502T06Z_MSC_RDPS_SpecificHumidity_IsbL-0275_RLatLon0.09_PT027H.grib2 2026-05-02 08:48 472K
20260502T06Z_MSC_RDPS_SpecificHumidity_IsbL-0300_RLatLon0.09_PT027H.grib2 2026-05-02 08:48 446K
20260502T06Z_MSC_RDPS_SpecificHumidity_IsbL-0350_RLatLon0.09_PT027H.grib2 2026-05-02 08:48 445K
20260502T06Z_MSC_RDPS_SpecificHumidity_IsbL-0400_RLatLon0.09_PT027H.grib2 2026-05-02 08:48 522K
20260502T06Z_MSC_RDPS_SpecificHumidity_IsbL-0450_RLatLon0.09_PT027H.grib2 2026-05-02 08:48 570K
20260502T06Z_MSC_RDPS_SpecificHumidity_IsbL-0500_RLatLon0.09_PT027H.grib2 2026-05-02 08:48 505K
20260502T06Z_MSC_RDPS_SpecificHumidity_IsbL-0550_RLatLon0.09_PT027H.grib2 2026-05-02 08:48 577K
20260502T06Z_MSC_RDPS_SpecificHumidity_IsbL-0600_RLatLon0.09_PT027H.grib2 2026-05-02 08:48 627K
20260502T06Z_MSC_RDPS_SpecificHumidity_IsbL-0650_RLatLon0.09_PT027H.grib2 2026-05-02 08:48 544K
20260502T06Z_MSC_RDPS_SpecificHumidity_IsbL-0700_RLatLon0.09_PT027H.grib2 2026-05-02 08:48 587K
20260502T06Z_MSC_RDPS_SpecificHumidity_IsbL-0750_RLatLon0.09_PT027H.grib2 2026-05-02 08:48 641K
20260502T06Z_MSC_RDPS_SpecificHumidity_IsbL-0800_RLatLon0.09_PT027H.grib2 2026-05-02 08:48 712K
20260502T06Z_MSC_RDPS_SpecificHumidity_IsbL-0850_RLatLon0.09_PT027H.grib2 2026-05-02 08:48 801K
20260502T06Z_MSC_RDPS_SpecificHumidity_IsbL-0875_RLatLon0.09_PT027H.grib2 2026-05-02 08:48 832K
20260502T06Z_MSC_RDPS_SpecificHumidity_IsbL-0900_RLatLon0.09_PT027H.grib2 2026-05-02 08:48 843K
20260502T06Z_MSC_RDPS_SpecificHumidity_IsbL-0925_RLatLon0.09_PT027H.grib2 2026-05-02 08:48 839K
20260502T06Z_MSC_RDPS_SpecificHumidity_IsbL-0950_RLatLon0.09_PT027H.grib2 2026-05-02 08:48 840K
20260502T06Z_MSC_RDPS_SpecificHumidity_IsbL-0970_RLatLon0.09_PT027H.grib2 2026-05-02 08:48 691K
20260502T06Z_MSC_RDPS_SpecificHumidity_IsbL-0985_RLatLon0.09_PT027H.grib2 2026-05-02 08:48 685K
20260502T06Z_MSC_RDPS_SpecificHumidity_IsbL-1000_RLatLon0.09_PT027H.grib2 2026-05-02 08:48 680K
20260502T06Z_MSC_RDPS_SpecificHumidity_IsbL-1015_RLatLon0.09_PT027H.grib2 2026-05-02 08:48 670K
20260502T06Z_MSC_RDPS_SpecificHumidity_Sfc_RLatLon0.09_PT027H.grib2 2026-05-02 08:48 294K
20260502T06Z_MSC_RDPS_StormRelativeHelicity_EtaL-10000_RLatLon0.09_PT027H.grib2 2026-05-02 08:48 1.1M
20260502T06Z_MSC_RDPS_StormSeverityIndex_EtaL-10000_RLatLon0.09_PT027H.grib2 2026-05-02 08:48 1.2M
20260502T06Z_MSC_RDPS_Thickness_IsbL-0850to0700_RLatLon0.09_PT027H.grib2 2026-05-02 08:48 176K
20260502T06Z_MSC_RDPS_Thickness_IsbL-1000to0500_RLatLon0.09_PT027H.grib2 2026-05-02 08:48 195K
20260502T06Z_MSC_RDPS_Thickness_IsbL-1000to0850_RLatLon0.09_PT027H.grib2 2026-05-02 08:48 261K
20260502T06Z_MSC_RDPS_TotalCloudCover_Sfc_RLatLon0.09_PT027H.grib2 2026-05-02 08:48 664K
20260502T06Z_MSC_RDPS_TotalTotalsIndex_Sfc_RLatLon0.09_PT027H.grib2 2026-05-02 08:48 2.3M
20260502T06Z_MSC_RDPS_UVIndex-ClearSky_Sfc_RLatLon0.09_PT027H.grib2 2026-05-02 08:48 115K
20260502T06Z_MSC_RDPS_UVIndex_Sfc_RLatLon0.09_PT027H.grib2 2026-05-02 08:48 209K
20260502T06Z_MSC_RDPS_UpwardLongwaveRadiationFlux_NTAtm_RLatLon0.09_PT027H.grib2 2026-05-02 08:48 488K
20260502T06Z_MSC_RDPS_UpwardShortwaveRadiationFlux_NTAtm_RLatLon0.09_PT027H.grib2 2026-05-02 08:48 168K
20260502T06Z_MSC_RDPS_VerticalVelocity_IsbL-0250_RLatLon0.09_PT027H.grib2 2026-05-02 08:48 554K
20260502T06Z_MSC_RDPS_VerticalVelocity_IsbL-0500_RLatLon0.09_PT027H.grib2 2026-05-02 08:48 541K
20260502T06Z_MSC_RDPS_VerticalVelocity_IsbL-0700_RLatLon0.09_PT027H.grib2 2026-05-02 08:48 593K
20260502T06Z_MSC_RDPS_VerticalVelocity_IsbL-0850_RLatLon0.09_PT027H.grib2 2026-05-02 08:48 701K
20260502T06Z_MSC_RDPS_VerticalWindShear_EtaL-6500_RLatLon0.09_PT027H.grib2 2026-05-02 08:48 1.2M
20260502T06Z_MSC_RDPS_WindChill_Sfc_RLatLon0.09_PT027H.grib2 2026-05-02 08:48 1.2M
20260502T06Z_MSC_RDPS_WindDir_AGL-10m_RLatLon0.09_PT027H.grib2 2026-05-02 08:48 1.0M
20260502T06Z_MSC_RDPS_WindDir_AGL-120m_RLatLon0.09_PT027H.grib2 2026-05-02 08:48 608K
20260502T06Z_MSC_RDPS_WindDir_AGL-40m_RLatLon0.09_PT027H.grib2 2026-05-02 08:48 642K
20260502T06Z_MSC_RDPS_WindDir_AGL-80m_RLatLon0.09_PT027H.grib2 2026-05-02 08:48 621K
20260502T06Z_MSC_RDPS_WindDir_IsbL-0001_RLatLon0.09_PT027H.grib2 2026-05-02 08:48 305K
20260502T06Z_MSC_RDPS_WindDir_IsbL-0005_RLatLon0.09_PT027H.grib2 2026-05-02 08:48 386K
20260502T06Z_MSC_RDPS_WindDir_IsbL-0010_RLatLon0.09_PT027H.grib2 2026-05-02 08:48 396K
20260502T06Z_MSC_RDPS_WindDir_IsbL-0020_RLatLon0.09_PT027H.grib2 2026-05-02 08:48 430K
20260502T06Z_MSC_RDPS_WindDir_IsbL-0030_RLatLon0.09_PT027H.grib2 2026-05-02 08:48 423K
20260502T06Z_MSC_RDPS_WindDir_IsbL-0050_RLatLon0.09_PT027H.grib2 2026-05-02 08:48 421K
20260502T06Z_MSC_RDPS_WindDir_IsbL-0100_RLatLon0.09_PT027H.grib2 2026-05-02 08:48 412K
20260502T06Z_MSC_RDPS_WindDir_IsbL-0150_RLatLon0.09_PT027H.grib2 2026-05-02 08:48 416K
20260502T06Z_MSC_RDPS_WindDir_IsbL-0175_RLatLon0.09_PT027H.grib2 2026-05-02 08:48 423K
20260502T06Z_MSC_RDPS_WindDir_IsbL-0200_RLatLon0.09_PT027H.grib2 2026-05-02 08:48 439K
20260502T06Z_MSC_RDPS_WindDir_IsbL-0225_RLatLon0.09_PT027H.grib2 2026-05-02 08:48 450K
20260502T06Z_MSC_RDPS_WindDir_IsbL-0250_RLatLon0.09_PT027H.grib2 2026-05-02 08:48 457K
20260502T06Z_MSC_RDPS_WindDir_IsbL-0275_RLatLon0.09_PT027H.grib2 2026-05-02 08:48 477K
20260502T06Z_MSC_RDPS_WindDir_IsbL-0300_RLatLon0.09_PT027H.grib2 2026-05-02 08:48 479K
20260502T06Z_MSC_RDPS_WindDir_IsbL-0350_RLatLon0.09_PT027H.grib2 2026-05-02 08:48 506K
20260502T06Z_MSC_RDPS_WindDir_IsbL-0400_RLatLon0.09_PT027H.grib2 2026-05-02 08:48 522K
20260502T06Z_MSC_RDPS_WindDir_IsbL-0450_RLatLon0.09_PT027H.grib2 2026-05-02 08:48 530K
20260502T06Z_MSC_RDPS_WindDir_IsbL-0500_RLatLon0.09_PT027H.grib2 2026-05-02 08:48 540K
20260502T06Z_MSC_RDPS_WindDir_IsbL-0550_RLatLon0.09_PT027H.grib2 2026-05-02 08:48 552K
20260502T06Z_MSC_RDPS_WindDir_IsbL-0600_RLatLon0.09_PT027H.grib2 2026-05-02 08:48 577K
20260502T06Z_MSC_RDPS_WindDir_IsbL-0650_RLatLon0.09_PT027H.grib2 2026-05-02 08:48 614K
20260502T06Z_MSC_RDPS_WindDir_IsbL-0700_RLatLon0.09_PT027H.grib2 2026-05-02 08:48 653K
20260502T06Z_MSC_RDPS_WindDir_IsbL-0750_RLatLon0.09_PT027H.grib2 2026-05-02 08:48 696K
20260502T06Z_MSC_RDPS_WindDir_IsbL-0800_RLatLon0.09_PT027H.grib2 2026-05-02 08:48 770K
20260502T06Z_MSC_RDPS_WindDir_IsbL-0850_RLatLon0.09_PT027H.grib2 2026-05-02 08:48 861K
20260502T06Z_MSC_RDPS_WindDir_IsbL-0875_RLatLon0.09_PT027H.grib2 2026-05-02 08:48 895K
20260502T06Z_MSC_RDPS_WindDir_IsbL-0900_RLatLon0.09_PT027H.grib2 2026-05-02 08:48 913K
20260502T06Z_MSC_RDPS_WindDir_IsbL-0925_RLatLon0.09_PT027H.grib2 2026-05-02 08:48 925K
20260502T06Z_MSC_RDPS_WindDir_IsbL-0950_RLatLon0.09_PT027H.grib2 2026-05-02 08:48 924K
20260502T06Z_MSC_RDPS_WindDir_IsbL-0970_RLatLon0.09_PT027H.grib2 2026-05-02 08:48 931K
20260502T06Z_MSC_RDPS_WindDir_IsbL-0985_RLatLon0.09_PT027H.grib2 2026-05-02 08:48 939K
20260502T06Z_MSC_RDPS_WindDir_IsbL-1000_RLatLon0.09_PT027H.grib2 2026-05-02 08:48 953K
20260502T06Z_MSC_RDPS_WindDir_IsbL-1015_RLatLon0.09_PT027H.grib2 2026-05-02 08:48 970K
20260502T06Z_MSC_RDPS_WindGust-Max_AGL-10m_RLatLon0.09_PT027H.grib2 2026-05-02 08:48 1.0M
20260502T06Z_MSC_RDPS_WindGust-Min_AGL-10m_RLatLon0.09_PT027H.grib2 2026-05-02 08:48 971K
20260502T06Z_MSC_RDPS_WindGust_AGL-10m_RLatLon0.09_PT027H.grib2 2026-05-02 08:48 1.0M
20260502T06Z_MSC_RDPS_WindSpeed_AGL-10m_RLatLon0.09_PT027H.grib2 2026-05-02 08:48 846K
20260502T06Z_MSC_RDPS_WindSpeed_AGL-120m_RLatLon0.09_PT027H.grib2 2026-05-02 08:48 546K
20260502T06Z_MSC_RDPS_WindSpeed_AGL-40m_RLatLon0.09_PT027H.grib2 2026-05-02 08:48 547K
20260502T06Z_MSC_RDPS_WindSpeed_AGL-80m_RLatLon0.09_PT027H.grib2 2026-05-02 08:48 547K
20260502T06Z_MSC_RDPS_WindSpeed_IsbL-0001_RLatLon0.09_PT027H.grib2 2026-05-02 08:48 249K
20260502T06Z_MSC_RDPS_WindSpeed_IsbL-0005_RLatLon0.09_PT027H.grib2 2026-05-02 08:48 381K
20260502T06Z_MSC_RDPS_WindSpeed_IsbL-0010_RLatLon0.09_PT027H.grib2 2026-05-02 08:48 397K
20260502T06Z_MSC_RDPS_WindSpeed_IsbL-0020_RLatLon0.09_PT027H.grib2 2026-05-02 08:48 420K
20260502T06Z_MSC_RDPS_WindSpeed_IsbL-0030_RLatLon0.09_PT027H.grib2 2026-05-02 08:48 323K
20260502T06Z_MSC_RDPS_WindSpeed_IsbL-0050_RLatLon0.09_PT027H.grib2 2026-05-02 08:48 353K
20260502T06Z_MSC_RDPS_WindSpeed_IsbL-0100_RLatLon0.09_PT027H.grib2 2026-05-02 08:48 478K
20260502T06Z_MSC_RDPS_WindSpeed_IsbL-0150_RLatLon0.09_PT027H.grib2 2026-05-02 08:48 385K
20260502T06Z_MSC_RDPS_WindSpeed_IsbL-0175_RLatLon0.09_PT027H.grib2 2026-05-02 08:48 426K
20260502T06Z_MSC_RDPS_WindSpeed_IsbL-0200_RLatLon0.09_PT027H.grib2 2026-05-02 08:48 441K
20260502T06Z_MSC_RDPS_WindSpeed_IsbL-0225_RLatLon0.09_PT027H.grib2 2026-05-02 08:48 449K
20260502T06Z_MSC_RDPS_WindSpeed_IsbL-0250_RLatLon0.09_PT027H.grib2 2026-05-02 08:48 453K
20260502T06Z_MSC_RDPS_WindSpeed_IsbL-0275_RLatLon0.09_PT027H.grib2 2026-05-02 08:48 472K
20260502T06Z_MSC_RDPS_WindSpeed_IsbL-0300_RLatLon0.09_PT027H.grib2 2026-05-02 08:48 469K
20260502T06Z_MSC_RDPS_WindSpeed_IsbL-0350_RLatLon0.09_PT027H.grib2 2026-05-02 08:48 479K
20260502T06Z_MSC_RDPS_WindSpeed_IsbL-0400_RLatLon0.09_PT027H.grib2 2026-05-02 08:48 465K
20260502T06Z_MSC_RDPS_WindSpeed_IsbL-0450_RLatLon0.09_PT027H.grib2 2026-05-02 08:48 465K
20260502T06Z_MSC_RDPS_WindSpeed_IsbL-0500_RLatLon0.09_PT027H.grib2 2026-05-02 08:48 464K
20260502T06Z_MSC_RDPS_WindSpeed_IsbL-0550_RLatLon0.09_PT027H.grib2 2026-05-02 08:48 586K
20260502T06Z_MSC_RDPS_WindSpeed_IsbL-0600_RLatLon0.09_PT027H.grib2 2026-05-02 08:48 594K
20260502T06Z_MSC_RDPS_WindSpeed_IsbL-0650_RLatLon0.09_PT027H.grib2 2026-05-02 08:48 612K
20260502T06Z_MSC_RDPS_WindSpeed_IsbL-0700_RLatLon0.09_PT027H.grib2 2026-05-02 08:48 637K
20260502T06Z_MSC_RDPS_WindSpeed_IsbL-0750_RLatLon0.09_PT027H.grib2 2026-05-02 08:48 712K
20260502T06Z_MSC_RDPS_WindSpeed_IsbL-0800_RLatLon0.09_PT027H.grib2 2026-05-02 08:48 762K
20260502T06Z_MSC_RDPS_WindSpeed_IsbL-0850_RLatLon0.09_PT027H.grib2 2026-05-02 08:48 824K
20260502T06Z_MSC_RDPS_WindSpeed_IsbL-0875_RLatLon0.09_PT027H.grib2 2026-05-02 08:48 847K
20260502T06Z_MSC_RDPS_WindSpeed_IsbL-0900_RLatLon0.09_PT027H.grib2 2026-05-02 08:48 860K
20260502T06Z_MSC_RDPS_WindSpeed_IsbL-0925_RLatLon0.09_PT027H.grib2 2026-05-02 08:48 873K
20260502T06Z_MSC_RDPS_WindSpeed_IsbL-0950_RLatLon0.09_PT027H.grib2 2026-05-02 08:48 868K
20260502T06Z_MSC_RDPS_WindSpeed_IsbL-0970_RLatLon0.09_PT027H.grib2 2026-05-02 08:48 869K
20260502T06Z_MSC_RDPS_WindSpeed_IsbL-0985_RLatLon0.09_PT027H.grib2 2026-05-02 08:48 863K
20260502T06Z_MSC_RDPS_WindSpeed_IsbL-1000_RLatLon0.09_PT027H.grib2 2026-05-02 08:48 855K
20260502T06Z_MSC_RDPS_WindSpeed_IsbL-1015_RLatLon0.09_PT027H.grib2 2026-05-02 08:48 846K
20260502T06Z_MSC_RDPS_WindU_AGL-10m_RLatLon0.09_PT027H.grib2 2026-05-02 08:48 434K
20260502T06Z_MSC_RDPS_WindU_AGL-120m_RLatLon0.09_PT027H.grib2 2026-05-02 08:48 423K
20260502T06Z_MSC_RDPS_WindU_AGL-40m_RLatLon0.09_PT027H.grib2 2026-05-02 08:48 543K
20260502T06Z_MSC_RDPS_WindU_AGL-80m_RLatLon0.09_PT027H.grib2 2026-05-02 08:48 542K
20260502T06Z_MSC_RDPS_WindU_IsbL-0001_RLatLon0.09_PT027H.grib2 2026-05-02 08:48 240K
20260502T06Z_MSC_RDPS_WindU_IsbL-0005_RLatLon0.09_PT027H.grib2 2026-05-02 08:48 281K
20260502T06Z_MSC_RDPS_WindU_IsbL-0010_RLatLon0.09_PT027H.grib2 2026-05-02 08:48 294K
20260502T06Z_MSC_RDPS_WindU_IsbL-0020_RLatLon0.09_PT027H.grib2 2026-05-02 08:48 313K
20260502T06Z_MSC_RDPS_WindU_IsbL-0030_RLatLon0.09_PT027H.grib2 2026-05-02 08:48 354K
20260502T06Z_MSC_RDPS_WindU_IsbL-0050_RLatLon0.09_PT027H.grib2 2026-05-02 08:48 379K
20260502T06Z_MSC_RDPS_WindU_IsbL-0100_RLatLon0.09_PT027H.grib2 2026-05-02 08:48 336K
20260502T06Z_MSC_RDPS_WindU_IsbL-0150_RLatLon0.09_PT027H.grib2 2026-05-02 08:48 399K
20260502T06Z_MSC_RDPS_WindU_IsbL-0175_RLatLon0.09_PT027H.grib2 2026-05-02 08:48 418K
20260502T06Z_MSC_RDPS_WindU_IsbL-0200_RLatLon0.09_PT027H.grib2 2026-05-02 08:48 335K
20260502T06Z_MSC_RDPS_WindU_IsbL-0225_RLatLon0.09_PT027H.grib2 2026-05-02 08:48 341K
20260502T06Z_MSC_RDPS_WindU_IsbL-0250_RLatLon0.09_PT027H.grib2 2026-05-02 08:48 344K
20260502T06Z_MSC_RDPS_WindU_IsbL-0275_RLatLon0.09_PT027H.grib2 2026-05-02 08:48 359K
20260502T06Z_MSC_RDPS_WindU_IsbL-0300_RLatLon0.09_PT027H.grib2 2026-05-02 08:48 356K
20260502T06Z_MSC_RDPS_WindU_IsbL-0350_RLatLon0.09_PT027H.grib2 2026-05-02 08:48 364K
20260502T06Z_MSC_RDPS_WindU_IsbL-0400_RLatLon0.09_PT027H.grib2 2026-05-02 08:48 470K
20260502T06Z_MSC_RDPS_WindU_IsbL-0450_RLatLon0.09_PT027H.grib2 2026-05-02 08:48 469K
20260502T06Z_MSC_RDPS_WindU_IsbL-0500_RLatLon0.09_PT027H.grib2 2026-05-02 08:48 470K
20260502T06Z_MSC_RDPS_WindU_IsbL-0550_RLatLon0.09_PT027H.grib2 2026-05-02 08:48 473K
20260502T06Z_MSC_RDPS_WindU_IsbL-0600_RLatLon0.09_PT027H.grib2 2026-05-02 08:48 481K
20260502T06Z_MSC_RDPS_WindU_IsbL-0650_RLatLon0.09_PT027H.grib2 2026-05-02 08:48 482K
20260502T06Z_MSC_RDPS_WindU_IsbL-0700_RLatLon0.09_PT027H.grib2 2026-05-02 08:48 504K
20260502T06Z_MSC_RDPS_WindU_IsbL-0750_RLatLon0.09_PT027H.grib2 2026-05-02 08:48 531K
20260502T06Z_MSC_RDPS_WindU_IsbL-0800_RLatLon0.09_PT027H.grib2 2026-05-02 08:48 575K
20260502T06Z_MSC_RDPS_WindU_IsbL-0850_RLatLon0.09_PT027H.grib2 2026-05-02 08:48 630K
20260502T06Z_MSC_RDPS_WindU_IsbL-0875_RLatLon0.09_PT027H.grib2 2026-05-02 08:48 651K
20260502T06Z_MSC_RDPS_WindU_IsbL-0900_RLatLon0.09_PT027H.grib2 2026-05-02 08:48 661K
20260502T06Z_MSC_RDPS_WindU_IsbL-0925_RLatLon0.09_PT027H.grib2 2026-05-02 08:48 669K
20260502T06Z_MSC_RDPS_WindU_IsbL-0950_RLatLon0.09_PT027H.grib2 2026-05-02 08:48 664K
20260502T06Z_MSC_RDPS_WindU_IsbL-0970_RLatLon0.09_PT027H.grib2 2026-05-02 08:48 662K
20260502T06Z_MSC_RDPS_WindU_IsbL-0985_RLatLon0.09_PT027H.grib2 2026-05-02 08:48 657K
20260502T06Z_MSC_RDPS_WindU_IsbL-1000_RLatLon0.09_PT027H.grib2 2026-05-02 08:48 793K
20260502T06Z_MSC_RDPS_WindU_IsbL-1015_RLatLon0.09_PT027H.grib2 2026-05-02 08:48 785K
20260502T06Z_MSC_RDPS_WindV_AGL-10m_RLatLon0.09_PT027H.grib2 2026-05-02 08:48 434K
20260502T06Z_MSC_RDPS_WindV_AGL-120m_RLatLon0.09_PT027H.grib2 2026-05-02 08:48 423K
20260502T06Z_MSC_RDPS_WindV_AGL-40m_RLatLon0.09_PT027H.grib2 2026-05-02 08:48 425K
20260502T06Z_MSC_RDPS_WindV_AGL-80m_RLatLon0.09_PT027H.grib2 2026-05-02 08:48 424K
20260502T06Z_MSC_RDPS_WindV_IsbL-0001_RLatLon0.09_PT027H.grib2 2026-05-02 08:48 244K
20260502T06Z_MSC_RDPS_WindV_IsbL-0005_RLatLon0.09_PT027H.grib2 2026-05-02 08:48 284K
20260502T06Z_MSC_RDPS_WindV_IsbL-0010_RLatLon0.09_PT027H.grib2 2026-05-02 08:48 297K
20260502T06Z_MSC_RDPS_WindV_IsbL-0020_RLatLon0.09_PT027H.grib2 2026-05-02 08:48 317K
20260502T06Z_MSC_RDPS_WindV_IsbL-0030_RLatLon0.09_PT027H.grib2 2026-05-02 08:48 317K
20260502T06Z_MSC_RDPS_WindV_IsbL-0050_RLatLon0.09_PT027H.grib2 2026-05-02 08:48 344K
20260502T06Z_MSC_RDPS_WindV_IsbL-0100_RLatLon0.09_PT027H.grib2 2026-05-02 08:48 431K
20260502T06Z_MSC_RDPS_WindV_IsbL-0150_RLatLon0.09_PT027H.grib2 2026-05-02 08:48 399K
20260502T06Z_MSC_RDPS_WindV_IsbL-0175_RLatLon0.09_PT027H.grib2 2026-05-02 08:48 418K
20260502T06Z_MSC_RDPS_WindV_IsbL-0200_RLatLon0.09_PT027H.grib2 2026-05-02 08:48 335K
20260502T06Z_MSC_RDPS_WindV_IsbL-0225_RLatLon0.09_PT027H.grib2 2026-05-02 08:48 339K
20260502T06Z_MSC_RDPS_WindV_IsbL-0250_RLatLon0.09_PT027H.grib2 2026-05-02 08:48 342K
20260502T06Z_MSC_RDPS_WindV_IsbL-0275_RLatLon0.09_PT027H.grib2 2026-05-02 08:48 358K
20260502T06Z_MSC_RDPS_WindV_IsbL-0300_RLatLon0.09_PT027H.grib2 2026-05-02 08:48 355K
20260502T06Z_MSC_RDPS_WindV_IsbL-0350_RLatLon0.09_PT027H.grib2 2026-05-02 08:48 363K
20260502T06Z_MSC_RDPS_WindV_IsbL-0400_RLatLon0.09_PT027H.grib2 2026-05-02 08:48 364K
20260502T06Z_MSC_RDPS_WindV_IsbL-0450_RLatLon0.09_PT027H.grib2 2026-05-02 08:48 365K
20260502T06Z_MSC_RDPS_WindV_IsbL-0500_RLatLon0.09_PT027H.grib2 2026-05-02 08:48 469K
20260502T06Z_MSC_RDPS_WindV_IsbL-0550_RLatLon0.09_PT027H.grib2 2026-05-02 08:48 472K
20260502T06Z_MSC_RDPS_WindV_IsbL-0600_RLatLon0.09_PT027H.grib2 2026-05-02 08:48 480K
20260502T06Z_MSC_RDPS_WindV_IsbL-0650_RLatLon0.09_PT027H.grib2 2026-05-02 08:48 495K
20260502T06Z_MSC_RDPS_WindV_IsbL-0700_RLatLon0.09_PT027H.grib2 2026-05-02 08:48 516K
20260502T06Z_MSC_RDPS_WindV_IsbL-0750_RLatLon0.09_PT027H.grib2 2026-05-02 08:48 542K
20260502T06Z_MSC_RDPS_WindV_IsbL-0800_RLatLon0.09_PT027H.grib2 2026-05-02 08:48 584K
20260502T06Z_MSC_RDPS_WindV_IsbL-0850_RLatLon0.09_PT027H.grib2 2026-05-02 08:48 638K
20260502T06Z_MSC_RDPS_WindV_IsbL-0875_RLatLon0.09_PT027H.grib2 2026-05-02 08:48 657K
20260502T06Z_MSC_RDPS_WindV_IsbL-0900_RLatLon0.09_PT027H.grib2 2026-05-02 08:48 667K
20260502T06Z_MSC_RDPS_WindV_IsbL-0925_RLatLon0.09_PT027H.grib2 2026-05-02 08:48 674K
20260502T06Z_MSC_RDPS_WindV_IsbL-0950_RLatLon0.09_PT027H.grib2 2026-05-02 08:48 664K
20260502T06Z_MSC_RDPS_WindV_IsbL-0970_RLatLon0.09_PT027H.grib2 2026-05-02 08:48 662K
20260502T06Z_MSC_RDPS_WindV_IsbL-0985_RLatLon0.09_PT027H.grib2 2026-05-02 08:48 657K
20260502T06Z_MSC_RDPS_WindV_IsbL-1000_RLatLon0.09_PT027H.grib2 2026-05-02 08:48 791K
20260502T06Z_MSC_RDPS_WindV_IsbL-1015_RLatLon0.09_PT027H.grib2 2026-05-02 08:48 784K